Hourly Data Report for February 04, 2015

All times are specified in Local Standard Time (LST). Add 1 hour to adjust for Daylight Saving Time where and when it is observed.

GERALDTON A
ONTARIO

49°46'58.090" N
86°55'50.050" W
348.40 m
6042716
71834
YGQ

Download Data

Hourly Data (February 2015)
Hourly Data Report for February 4, 2015
Temp Definition
°C
Dew Point Temp Definition
°C
Rel Hum Definition
%
Wind Dir Definition
10's deg

Wind Spd Definition
km/h
Visibility Definition
km
Stn Press Definition
kPa
Hmdx Definition


Wind Chill Definition


Weather Definition


TIME
00:00 -31.2 -34.2 75   0 24.1 97.13     Clear
01:00 -32.1 -35.2 74 22 6 24.1 97.12   -39 Clear
02:00 -32.6 -35.6 75 23 7 24.1 97.09   -40 Clear
03:00 -31.3 -33.9 78 26 9 24.1 97.09   -40 Clear
04:00 -25.9 -28.4 79 27 9 24.1 97.09   -34 Clear
05:00 -27.6 -30.3 78 25 9 24.1 97.10   -36 Mainly Clear
06:00 -28.2 -31.2 75 26 6 24.1 97.13   -34 Snow
07:00 -28.1 -30.8 78 27 7 19.3 97.16   -35 Ice Crystals
08:00 -32.4 -35.6 73 26 6 19.3 97.23   -39 Ice Crystals
09:00 -27.6 -30.4 77 27 7 24.1 97.29   -34 Ice Crystals
10:00 -25.1 -28.0 77 31 17 24.1 97.40   -36 Mainly Clear
11:00 -24.1 -27.5 73 31 15 24.1 97.42   -34 Mainly Clear
12:00 -23.5 -27.9 67 30 28 24.1 97.44   -37 Mainly Clear
13:00 -22.4 -27.4 64 30 13 8.0 97.45   -31 Snow
14:00 -22.0 -27.6 60 28 13 8.0 97.47   -31 Snow
15:00 -21.5 -27.5 58 29 15 24.1 97.53   -31 Mostly Cloudy
16:00 -21.9 -27.8 59 28 11 24.1 97.55   -30 Mostly Cloudy
17:00 -22.6 -27.6 64 27 11 24.1 97.54   -31 Mainly Clear
18:00 -23.9 -28.2 68 26 11 24.1 97.64   -32 Clear
19:00 -25.3 -28.8 73 25 9 24.1 97.71   -33 Clear
20:00 -25.3 -28.3 76 27 11 24.1 97.76   -34 Clear
21:00 -25.2 -29.0 71 28 11 24.1 97.79   -34 Clear
22:00 -25.1 -29.0 70 28 11 24.1 97.81   -34 Clear
23:00 -26.1 -29.5 73 25 11 24.1 97.82   -35 Clear

Notes on Data Quality.

Legend

  • E = Estimated
  • M = Missing
  • NA = Not Available
  • ‡ = Partner data that is not subject to review by the National Climate Archives
Date modified: